User: anonymous   Login
Location: Unspecified
(0.0000°N, 0.0000°E)
Time: 21:30:53
(UTC+00:00)
Language:

STARLINK-33988 - Orbit

View from above orbital plane
View from above orbital plane
View from above satellite
View from above satellite

Ground track
Ground track

The orbit is defined by the following mean orbital elements,

1 63938U          26145.55027088 +.00000000 +00000-0 +22956-3 0 00002
2 63938  70.0044  80.7360 0002165 265.8044  94.2868 14.98347623    07
Epoch (UTC): 25 May 2026 13:12:23
Eccentricity: 0.0002165
inclination: 70.0044°
perigee height: 570 km
apogee height: 574 km
right ascension of ascending node: 80.7360°
argument of perigee: 265.8044°
revolutions per day: 14.98347623
mean anomaly at epoch: 94.2868°

The dashed part of the orbit path shows where the satellite is in the earth's shadow,  

DLR